Regional Weather Roundup
Issued by NWS

Home | Current Version | Previous Version | Graphics & Text | Print | Product List | Glossary On
Versions: 1 2 3 4 5 6 7 8 9 10 11 12 13 14 15 16 17 18 19 20 21 22 23 24 25 26 27 28 29 30 31 32 33 34 35 36 37 38 39 40 41 42 43 44 45 46 47 48 49 50
000
ASUS43 KLMK 170002
RWRKY
KENTUCKY REGIONAL WEATHER ROUNDUP
NATIONAL WEATHER SERVICE LOUISVILLE KY
800 PM EDT WED APR 16 2014

NOTE "FAIR" INDICATES FEW OR NO CLOUDS BELOW 12,000 FEET
WITH NO SIGNIFICANT WEATHER AND/OR OBSTRUCTIONS TO VISIBILITY.

KYZ001>023-026-027-061>063-070>075-170100-
WESTERN AND SOUTH CENTRAL KENTUCKY

CITY           SKY/WX    TMP DP  RH WIND       PRES   REMARKS
PADUCAH        MOCLDY    57  29  34 SE5       30.13S
HENDERSON      PTCLDY    54  27  35 SE7       30.16S
OWENSBORO      PTCLDY    53  27  37 SE12      30.18S
HOPKINSVILLE   MOCLDY    55  27  33 SE8       30.16S
BOWLING GREEN  PTCLDY    53  27  36 E6        30.18F
GLASGOW        NOT AVBL
$$

KYZ024-025-028>034-038-045-046-053-170100-
NORTH CENTRAL KENTUCKY

CITY           SKY/WX    TMP DP  RH WIND       PRES   REMARKS
LOUISVILLE/SDF MOCLDY    53  22  29 SE13      30.21F
LOUISVILLE/LOU PTCLDY    55  21  26 E8        30.22F
FORT KNOX      PTCLDY    51  24  35 E10       30.19F
$$

KYZ035>037-039>044-047>052-055>060-089>105-170100-
NORTHEAST KENTUCKY

CITY           SKY/WX    TMP DP  RH WIND       PRES   REMARKS
LEXINGTON      PTCLDY    51  21  30 E10       30.23F
COVINGTON      MOCLDY    48  20  32 SE10      30.25S
FRANKFORT      PTCLDY    49  23  36 E8        30.22F
$$

KYZ054-064>069-076>088-106>120-170100-
SOUTHEAST KENTUCKY

CITY           SKY/WX    TMP DP  RH WIND       PRES   REMARKS
JACKSON        PTCLDY    50  18  28 VRB3      30.24F
LONDON         PTCLDY    55  22  27 NE5       30.21S
SOMERSET       NOT AVBL
MIDDLESBORO    NOT AVBL
MONTICELLO     PTCLDY    52  33  48 NE5       30.21S
$$




USA.gov is the U.S. government's official web portal to all federal, state and local government web resources and services.